Location: Arroyo de Valdeoliva
(40.1604°N, 4.9878°W)
Time: 09:52:04
(UTC+00:00)

BlueWalker 3 - Pass Details

Date: 26 February 2026
Orbit: 451 x 458 km, 53.2° (Epoch: 6 March)

Event Time Altitude Azimuth Distance (km) Brightness Sun altitude
Exits shadow 05:39:33 33° 247° (WSW) 793 2.4 -15.8°
Maximum altitude 05:41:01 69° 322° (NW) 492 1.7 -15.5°
Drops below altitude 10° 05:44:36 10° 46° (NE) 1,598 5.2 -14.8°
Sets 05:46:45 0° 49° (NE) 2,473 6.3 -14.4°
